Regional Weather Roundup
Issued by NWS

Home | Current Version | Previous Version | Graphics & Text | Print | Product List | Glossary On
Versions: 1 2 3 4 5 6 7 8 9 10 11 12 13 14 15 16 17 18 19 20 21 22 23 24 25 26 27 28 29 30 31 32 33 34 35 36 37 38 39 40 41 42 43 44 45 46 47 48 49 50
200
ASUS45 KCYS 261410
RWRWY

WYOMING REGIONAL WEATHER ROUNDUP
NATIONAL WEATHER SERVICE CHEYENNE WY
800 AM MDT TUE JUL 26 2016

NOTE:  "FAIR" INDICATES FEW OR NO CLOUDS BELOW 12,000 FEET
WITH NO SIGNIFICANT WEATHER AND/OR OBSTRUCTIONS TO VISIBILITY.

WYZ001-261500-
YELLOWSTONE NATIONAL PARK

CITY           SKY/WX    TMP DP  RH WIND       PRES   REMARKS
LK YELLOWSTONE   N/A     50  40  68 CALM      30.38R
W YELLOWSTONE  NOT AVBL

$$
WYZ002>013-054>058-071-098>099-261500-
NORTHERN WYOMING

CITY           SKY/WX    TMP DP  RH WIND       PRES   REMARKS
JACKSON        SUNNY     52  30  43 CALM      30.30R
CODY           FAIR      70  41  35 S5        30.17S
GREYBULL       FAIR      73  42  32 CALM      30.09R
WORLAND        FAIR      72  44  36 S5        30.12R
SHERIDAN       FAIR      70  49  47 SE3       30.12R
BUFFALO        FAIR      71  47  42 NW9       30.19R
GILLETTE       FAIR      67  56  67 N8        30.11F
HULETT         FAIR      63  59  88 NE5       30.12S
NEWCASTLE      FAIR      73  54  49 SW8       30.06F

$$
WYZ014>020-022>026-101>103-261500-
CENTRAL WYOMING

CITY           SKY/WX    TMP DP  RH WIND       PRES   REMARKS
BIG PINEY      FAIR      58  29  33 CALM      30.31S
PINEDALE       FAIR      50  32  50 NW6       30.33F
DUBOIS           N/A     54  25  32 NW5       30.30R HAZE
LANDER         FAIR      67  45  45 SE3       30.19R
RIVERTON       FAIR      69  41  36 S5        30.21R
CASPER         FAIR      69  45  41 N8        30.20R
DOUGLAS          N/A    N/A N/A N/A MISG      30.14R

$$
WYZ021-027>030-104>119-261500-
SOUTHERN WYOMING

CITY           SKY/WX    TMP DP  RH WIND       PRES   REMARKS
EVANSTON       FAIR      59  35  40 N7        30.32S
KEMMERER         N/A     55  32  41 NE3       30.34R
FORT BRIDGER   FAIR      65  34  31 W5        30.34R
ROCK SPRINGS   FAIR      67  34  29 NE6       30.28S
DIXON          FAIR      60  41  48 SE6       30.32S
RAWLINS        FAIR      68  32  26 CALM      30.29R
SARATOGA       FAIR      66  34  30 SE7       30.31S
LARAMIE        FAIR      66  34  30 SE6       30.31R
CHEYENNE       FAIR      73  40  30 W8        30.20R
TORRINGTON     FAIR      66  62  87 SE7       30.05R
PINE BLUFFS    FAIR      63  55  77 SW5       30.15S

$$




USA.gov is the U.S. government's official web portal to all federal, state and local government web resources and services.